Location: The Saddle
(36.8333°N, 80.3417°W)
Time: 08:21:12
(UTC-05:00)

Vanguard 2 Rocket - Pass Details

Date: 18 December 2023
Orbit: 555 x 3309 km, 32.9° (Epoch: 02 March)

Event Time Altitude Azimuth Distance (km) Brightness Sun altitude
Rises 12:14:49 0° 254° (WSW) 4,427 10.6 29.8°
Reaches altitude 10° 12:17:16 10° 253° (WSW) 3,732 10.3 29.8°
Maximum altitude 12:27:38 73° 170° (S) 2,335 9.8 29.7°
Drops below altitude 10° 12:45:25 10° 91° (E) 6,027 11.1 29.4°
Sets 12:50:35 0° 90° (E) 7,216 11.4 29.3°
